Location: ???? ????
(41.4149°N, 22.8816°E)
Time: 13:56:35
(UTC+00:00)

Cosmos 1816 Rocket - Pass Details

Date: 14 July 2020
Orbit: 952 x 998 km, 82.9° (Epoch: 04 August)

Event Time Altitude Azimuth Distance (km) Brightness Sun altitude
Rises 00:36:48 0° 351° (N) 3,729 8.3 -20.9°
Reaches altitude 10° 00:39:21 10° 350° (N) 2,776 7.5 -20.6°
Maximum altitude 00:45:44 79° 265° (W) 1,017 4.5 -20.0°
Enters shadow 00:49:17 28° 182° (S) 1,764 5.4 -19.6°
